• In Belgien
  • Länderverzeichnis
  • Für 7 Tage
  • Wassertemperatur
  • Satellitenkarten
  • Wetterkarte
  • Widgets
  • user-avatar
    Anmelden

    Stündliche Wetter Oran

    Heute, 16 Juli, Montag

    Zeit Temperatur Niederschläge Wind Luftdruck Luftfeuchtigkeit
    00:00 +27°C° 0 mm 8 m/S 753 mmHg 38%
    01:00 +26°C° 0 mm 8 m/S 753 mmHg 42%
    02:00 +26°C° 0 mm 8 m/S 753 mmHg 46%
    03:00 +24°C° 0 mm 8 m/S 753 mmHg 49%
    04:00 +24°C° 0 mm 7 m/S 753 mmHg 50%
    05:00 +24°C° 0 mm 7 m/S 753 mmHg 50%
    06:00 +24°C° 0 mm 6 m/S 754 mmHg 51%
    07:00 +26°C° 0 mm 6 m/S 754 mmHg 46%
    08:00 +28°C° 0 mm 6 m/S 754 mmHg 41%
    09:00 +29°C° 0 mm 5 m/S 754 mmHg 35%
    10:00 +30°C° 0 mm 5 m/S 754 mmHg 33%
    11:00 +32°C° 0 mm 5 m/S 754 mmHg 30%
    12:00 +33°C° 0 mm 5 m/S 754 mmHg 27%
    13:00 +33°C° 0 mm 5 m/S 753 mmHg 27%
    14:00 +34°C° 0 mm 4 m/S 753 mmHg 27%
    15:00 +34°C° 0 mm 4 m/S 752 mmHg 26%
    16:00 +33°C° 0 mm 3 m/S 752 mmHg 28%
    17:00 +31°C° 0 mm 2 m/S 752 mmHg 29%
    18:00 +31°C° 0 mm 2 m/S 751 mmHg 31%
    19:00 +30°C° 0 mm 1 m/S 752 mmHg 32%
    20:00 +30°C° 0 mm 1 m/S 752 mmHg 34%
    21:00 +29°C° 0 mm 1 m/S 752 mmHg 35%
    22:00 +29°C° 0 mm 1 m/S 752 mmHg 36%
    23:00 +28°C° 0 mm 1 m/S 752 mmHg 37%

    Morgen, 17 Juli, Dienstag

    Zeit Temperatur Niederschläge Wind Luftdruck Luftfeuchtigkeit
    00:00 +26°C° 0 mm 0 m/S 752 mmHg 38%
    01:00 +28°C° 0 mm 1 m/S 752 mmHg 38%
    02:00 +27°C° 0 mm 1 m/S 751 mmHg 39%
    03:00 +27°C° 0 mm 2 m/S 751 mmHg 40%
    04:00 +27°C° 0 mm 2 m/S 751 mmHg 41%
    05:00 +27°C° 0 mm 2 m/S 751 mmHg 41%
    06:00 +27°C° 0 mm 3 m/S 751 mmHg 42%
    07:00 +29°C° 0 mm 3 m/S 751 mmHg 37%
    08:00 +31°C° 0 mm 3 m/S 751 mmHg 32%
    09:00 +34°C° 0 mm 3 m/S 751 mmHg 26%
    10:00 +35°C° 0 mm 3 m/S 751 mmHg 24%
    11:00 +37°C° 0 mm 4 m/S 751 mmHg 21%
    12:00 +40°C° 0 mm 4 m/S 750 mmHg 18%
    13:00 +40°C° 0 mm 5 m/S 750 mmHg 19%
    14:00 +41°C° 0 mm 5 m/S 749 mmHg 19%
    15:00 +41°C° 0 mm 6 m/S 749 mmHg 19%
    16:00 +40°C° 0 mm 6 m/S 749 mmHg 21%
    17:00 +39°C° 0 mm 5 m/S 748 mmHg 23%
    18:00 +37°C° 0 mm 5 m/S 748 mmHg 24%
    19:00 +36°C° 0 mm 4 m/S 749 mmHg 28%
    20:00 +35°C° 0 mm 4 m/S 749 mmHg 32%
    21:00 +33°C° 0 mm 3 m/S 749 mmHg 36%
    22:00 +31°C° 0 mm 3 m/S 749 mmHg 40%
    23:00 +30°C° 0 mm 3 m/S 749 mmHg 44%

    übermorgen, 18 Juli, Mittwoch

    Zeit Temperatur Niederschläge Wind Luftdruck Luftfeuchtigkeit
    00:00 +30°C° 0 mm 2 m/S 749 mmHg 48%
    01:00 +29°C° 0 mm 2 m/S 749 mmHg 52%
    02:00 +28°C° 0 mm 2 m/S 749 mmHg 55%
    03:00 +27°C° 0 mm 2 m/S 748 mmHg 59%
    04:00 +27°C° 0 mm 2 m/S 748 mmHg 61%
    05:00 +27°C° 0 mm 2 m/S 749 mmHg 64%
    06:00 +27°C° 0 mm 2 m/S 749 mmHg 66%
    07:00 +28°C° 0 mm 2 m/S 749 mmHg 59%
    08:00 +30°C° 0 mm 2 m/S 749 mmHg 52%
    09:00 +33°C° 0 mm 3 m/S 750 mmHg 45%
    10:00 +34°C° 0 mm 3 m/S 750 mmHg 42%
    11:00 +35°C° 0 mm 3 m/S 750 mmHg 39%
    12:00 +36°C° 0 mm 3 m/S 750 mmHg 36%
    13:00 +36°C° 0 mm 4 m/S 750 mmHg 36%
    14:00 +36°C° 0 mm 4 m/S 750 mmHg 36%
    15:00 +36°C° 0 mm 4 m/S 750 mmHg 36%
    16:00 +35°C° 0 mm 3 m/S 750 mmHg 39%
    17:00 +35°C° 0 mm 3 m/S 750 mmHg 42%
    18:00 +34°C° 0 mm 2 m/S 750 mmHg 44%
    19:00 +32°C° 0 mm 2 m/S 750 mmHg 48%
    20:00 +31°C° 0 mm 2 m/S 750 mmHg 51%
    21:00 +30°C° 0 mm 2 m/S 751 mmHg 54%
    22:00 +30°C° 0 mm 1 m/S 751 mmHg 55%
    23:00 +30°C° 0 mm 1 m/S 751 mmHg 56%

    19 Juli, Donnerstag

    Zeit Temperatur Niederschläge Wind Luftdruck Luftfeuchtigkeit
    00:00 +29°C° 0 mm 1 m/S 751 mmHg 58%
    01:00 +29°C° 0 mm 1 m/S 750 mmHg 58%
    02:00 +29°C° 0 mm 1 m/S 750 mmHg 57%
    03:00 +29°C° 0 mm 1 m/S 750 mmHg 57%
    04:00 +29°C° 0 mm 1 m/S 750 mmHg 59%
    05:00 +29°C° 0 mm 1 m/S 750 mmHg 60%
    06:00 +26°C° 0 mm 0 m/S 750 mmHg 61%
    07:00 +30°C° 0 mm 1 m/S 750 mmHg 54%
    08:00 +31°C° 0 mm 2 m/S 750 mmHg 46%
    09:00 +34°C° 0 mm 2 m/S 751 mmHg 39%
    10:00 +35°C° 0 mm 3 m/S 750 mmHg 36%
    11:00 +36°C° 0 mm 4 m/S 750 mmHg 32%
    12:00 +37°C° 0 mm 5 m/S 750 mmHg 29%
    13:00 +37°C° 0 mm 5 m/S 750 mmHg 28%
    14:00 +37°C° 0 mm 5 m/S 749 mmHg 27%
    15:00 +37°C° 0 mm 5 m/S 749 mmHg 25%
    16:00 +36°C° 0 mm 5 m/S 749 mmHg 25%
    17:00 +36°C° 0 mm 4 m/S 749 mmHg 24%
    18:00 +35°C° 0 mm 4 m/S 749 mmHg 23%
    19:00 +35°C° 0 mm 4 m/S 749 mmHg 23%
    20:00 +34°C° 0 mm 4 m/S 750 mmHg 23%
    21:00 +34°C° 0 mm 4 m/S 750 mmHg 23%
    22:00 +34°C° 0 mm 4 m/S 750 mmHg 24%
    23:00 +34°C° 0 mm 4 m/S 750 mmHg 25%

    20 Juli, Freitag

    Zeit Temperatur Niederschläge Wind Luftdruck Luftfeuchtigkeit
    00:00 +33°C° 0 mm 5 m/S 750 mmHg 25%
    01:00 +33°C° 0 mm 5 m/S 750 mmHg 26%
    02:00 +32°C° 0 mm 5 m/S 750 mmHg 26%
    03:00 +32°C° 0 mm 6 m/S 749 mmHg 26%
    04:00 +30°C° 0 mm 5 m/S 750 mmHg 28%
    05:00 +30°C° 0 mm 5 m/S 750 mmHg 30%
    06:00 +29°C° 0 mm 5 m/S 750 mmHg 32%
    07:00 +30°C° 0 mm 5 m/S 751 mmHg 29%
    08:00 +32°C° 0 mm 5 m/S 751 mmHg 27%
    09:00 +33°C° 0 mm 6 m/S 751 mmHg 24%
    10:00 +34°C° 0 mm 6 m/S 751 mmHg 24%
    11:00 +35°C° 0 mm 6 m/S 751 mmHg 23%
    12:00 +36°C° 0 mm 6 m/S 751 mmHg 22%
    13:00 +36°C° 0 mm 5 m/S 751 mmHg 23%
    14:00 +36°C° 0 mm 5 m/S 751 mmHg 23%
    15:00 +37°C° 0 mm 5 m/S 750 mmHg 23%
    16:00 +36°C° 0 mm 4 m/S 750 mmHg 24%
    17:00 +35°C° 0 mm 3 m/S 750 mmHg 25%
    18:00 +35°C° 0 mm 2 m/S 750 mmHg 25%
    19:00 +34°C° 0 mm 2 m/S 751 mmHg 27%
    20:00 +32°C° 0 mm 2 m/S 751 mmHg 29%
    21:00 +31°C° 0 mm 2 m/S 751 mmHg 31%
    22:00 +31°C° 0 mm 2 m/S 751 mmHg 31%
    23:00 +31°C° 0 mm 1 m/S 751 mmHg 30%

    21 Juli, Samstag

    Zeit Temperatur Niederschläge Wind Luftdruck Luftfeuchtigkeit
    00:00 +31°C° 0 mm 1 m/S 751 mmHg 30%
    01:00 +31°C° 0 mm 1 m/S 751 mmHg 31%
    02:00 +30°C° 0 mm 1 m/S 751 mmHg 33%
    03:00 +29°C° 0 mm 1 m/S 751 mmHg 34%
    04:00 +29°C° 0 mm 2 m/S 751 mmHg 35%
    05:00 +29°C° 0 mm 2 m/S 751 mmHg 37%
    06:00 +29°C° 0 mm 3 m/S 752 mmHg 38%
    07:00 +30°C° 0 mm 3 m/S 752 mmHg 34%
    08:00 +33°C° 0 mm 3 m/S 752 mmHg 30%
    09:00 +34°C° 0 mm 3 m/S 752 mmHg 25%
    10:00 +36°C° 0 mm 3 m/S 752 mmHg 23%
    11:00 +37°C° 0 mm 4 m/S 752 mmHg 20%
    12:00 +40°C° 0 mm 5 m/S 752 mmHg 17%
    13:00 +40°C° 0 mm 5 m/S 751 mmHg 18%
    14:00 +40°C° 0 mm 6 m/S 751 mmHg 19%
    15:00 +41°C° 0 mm 6 m/S 751 mmHg 19%
    16:00 +40°C° 0 mm 6 m/S 751 mmHg 22%
    17:00 +39°C° 0 mm 6 m/S 751 mmHg 25%
    18:00 +38°C° 0 mm 6 m/S 750 mmHg 28%
    19:00 +35°C° 0 mm 5 m/S 751 mmHg 32%
    20:00 +34°C° 0 mm 4 m/S 751 mmHg 37%
    21:00 +33°C° 0 mm 3 m/S 751 mmHg 41%
    22:00 +33°C° 0 mm 3 m/S 751 mmHg 43%
    23:00 +31°C° 0 mm 3 m/S 751 mmHg 46%
    Mehr zeigen